Regional Weather Roundup
Issued by NWS

Home | Current Version | Previous Version | Graphics & Text | Print | Product List | Glossary Off
Versions: 1 2 3 4 5 6 7 8 9 10 11 12 13 14 15 16 17 18 19 20 21 22 23 24 25 26 27 28 29 30 31 32 33 34 35 36 37 38 39 40 41 42 43 44 45 46 47 48 49 50

000
ASUS43 KDMX 112303
RWRIA

WEATHER ROUNDUP FOR IOWA
NATIONAL WEATHER SERVICE DES MOINES IA
500 PM CST THU FEB 11 2016

NOTE: "FAIR" INDICATES FEW OR NO CLOUDS BELOW 12,000 FEET WITH NO
SIGNIFICANT WEATHER AND/OR OBSTRUCTIONS TO VISIBILITY.

* - THESE STATIONS ARE NOT NWS STATIONS...THUS NOT UNDER NWS
QUALITY CONTROL.  THEY ALSO DO NOT REPORT WEATHER SUCH
AS PRECIPITATION OR FOG.

IAZ001>003-012>014-020>022-031>034-043>046-120000-
   NORTHWEST IOWA

CITY           SKY/WX    TMP DP  RH WIND       PRES   REMARKS
CARROLL *      PTCLDY    14  10  85 SE9       30.21S FOG     WCI   2
CHEROKEE *     LGT SNOW  15  13  90 S7        30.19S WCI   5
DENISON *      CLOUDY    18  14  86 SE7       30.18S WCI   8
LE MARS *      LGT SNOW  18  18 100 SE8       30.19R WCI   7
ORANGE CITY *  LGT SNOW  16  16 100 SE8       30.16R VSB 1   WCI   5
SHELDON *      CLOUDY    16  12  86 SE9       30.16R FOG     WCI   4
SIOUX CITY     CLOUDY    20  12  71 SE9       30.19R WCI   9
SPENCER        LGT SNOW  14   9  80 SE9       30.19R WCI   2
STORM LAKE *   CLEAR     14  12  92 SE9       30.17F FOG     WCI   2
$$

IAZ055>058-069>071-079>083-090>094-120000-
   SOUTHWEST IOWA

CITY           SKY/WX    TMP DP  RH WIND       PRES   REMARKS
ATLANTIC *     CLOUDY    23  14  68 E8        30.19F WCI  14
AUDUBON *      LGT SNOW  18  14  86 E6        30.20S VSB 1   WCI   9
CLARINDA *     CLOUDY    32  19  59 SE7       30.21R WCI  26
COUNCIL BLFS * CLOUDY    25  21  86 CALM      30.17S
CRESTON *      CLOUDY    25  10  54 E10       30.20S WCI  15
HARLAN  *      CLOUDY    21  16  79 SE6       30.22S WCI  14
LAMONI         CLOUDY    26  10  50 E7        30.20F WCI  18
RED OAK *      CLOUDY    30  19  64 SE8       30.19S WCI  23
SHENANDOAH *   MOCLDY    32  19  59 S12       30.19F WCI  23
$$

IAZ047>049-059>061-072>074-084-120000-
   CENTRAL IOWA

CITY           SKY/WX    TMP DP  RH WIND       PRES   REMARKS
AMES           CLOUDY    18   5  57 E5        30.25S WCI  11
ANKENY *       FLURRIES  19   7  58 S6        30.26R WCI  11
BOONE *        LGT SNOW  16   9  73 E5        30.22F WCI   9
CHARITON *     CLOUDY    23   7  50 SE6       30.23F WCI  16
DES MOINES     LGT SNOW  20   6  55 SE6       30.25S WCI  12
GRINNELL*      MOCLDY    21  10  63 S5        30.25S WCI  15
KNOXVILLE *    CLOUDY    21   5  49 E3        30.24S
MARSHALLTOWN   CLOUDY    18   6  59 S6        30.25S WCI  10
NEWTON *       CLOUDY    19   7  58 SE6       30.25S WCI  11
PELLA *        CLOUDY    21   6  51 CALM      30.27S
$$

IAZ004>006-015-016-023>025-035-036-120000-
   NORTH CENTRAL IOWA

CITY           SKY/WX    TMP DP  RH WIND       PRES   REMARKS
ALGONA *       LGT SNOW  12   9  85 S8        30.21F WCI   1
CLARION *      LGT SNOW  14   5  67 S3        30.24F
ESTHERVILLE    LGT SNOW  12   8  84 S9        30.20R FOG     WCI   0
FORT DODGE *   CLOUDY    12   7  79 S6        30.24F WCI   3
MASON CITY     CLOUDY    11   3  70 SW9       30.24F WCI  -2
FOREST CITY *    N/A     12   5  73 S5        30.22F WCI   4
WEBSTER CITY * LGT SNOW  14   9  79 CALM      30.22F
IOWA FALLS *   CLOUDY    16   7  67 SW5       30.25F WCI   9
$$

IAZ007>011-017>019-026>030-037>042-050>054-066-120000-
   NORTHEAST IOWA

CITY           SKY/WX    TMP DP  RH WIND       PRES   REMARKS
CEDAR RAPIDS   CLOUDY    21   7  54 S6        30.25S WCI  13
CHARLES CITY * CLOUDY    12   1  62 SW6       30.25F WCI   3
CLINTON *      CLEAR     21   4  47 CALM      30.28F
DECORAH *      PTCLDY    12   0  57 VRB5      30.23S WCI   4
DUBUQUE        CLOUDY    17   3  54 NW3       30.24F
MONTICELLO *   CLOUDY    19   5  53 CALM      30.26S
OELWEIN *      CLOUDY    14   3  62 SW5       30.25F WCI   6
WATERLOO       PTCLDY    15   4  61 S5        30.27R WCI   8
$$

IAZ064-065-067-068-078-120000-
   EAST CENTRAL IOWA

CITY           SKY/WX    TMP DP  RH WIND       PRES   REMARKS
DAVENPORT      CLEAR     21   3  45 CALM      30.28S
IOWA CITY      MOCLDY    22   5  48 SE5       30.30R WCI  16
MT. PLEASANT * CLOUDY    27   9  47 CALM      30.28R
MUSCATINE *    PTCLDY    25   3  39 CALM      30.30R
QUAD CITIES    CLEAR     23   0  36 CALM      30.28S
$$

IAZ062-063-075>077-085>089-095>099-120000-
   SOUTHEAST IOWA

CITY           SKY/WX    TMP DP  RH WIND       PRES   REMARKS
BURLINGTON     CLOUDY    23   8  52 E5        30.28S WCI  17
FAIRFIELD *    MOCLDY    25   7  46 S6        30.27S WCI  18
FORT MADISON * CLOUDY    23  10  58 CALM      30.29R
KEOKUK *       CLOUDY    23  10  58 CALM      30.29R
OSKALOOSA *    CLOUDY    22  10  57 CALM      30.26F
OTTUMWA        CLOUDY    23  11  60 SE7       30.26S WCI  15
WASHINGTON *   PTCLDY    23   7  50 S6        30.29R WCI  16
$$

ABBREVIATIONS USED IN REMARKS
   TC - TEMPERATURES IN CELSIUS
  WCI - WIND CHILL INDEX
   HX - HEAT INDEX
  VSB - VISIBILITY
$$




USA.gov is the U.S. government's official web portal to all federal, state and local government web resources and services.